This is the latest recevied weather packets stored in our database for station/object KI6PPU. If no packets are shown the sender has not sent any weather packets the latest 10 day(s).
| Time | Temp. | Humidity | Pressure | Rain* | Wind** | Luminosity | Snow |
|---|---|---|---|---|---|---|---|
| 1778099958 | 19.44° C | 74% | 1022.5 hPa | 0 mm | - | 295 W/m² | - |
| 1778099655 | 20° C | 73% | 1022.5 hPa | 0 mm | - | 289 W/m² | - |
| 1778099352 | 19.44° C | 76% | 1022.7 hPa | 0 mm | - | 286 W/m² | - |
| 1778099049 | 19.44° C | 73% | 1022.5 hPa | 0 mm | - | 317 W/m² | - |
| 1778098746 | 19.44° C | 73% | 1022.7 hPa | 0 mm | - | 351 W/m² | - |
| 1778098444 | 19.44° C | 73% | 1022.6 hPa | 0 mm | - | 382 W/m² | - |
| 1778098140 | 19.44° C | 74% | 1022.6 hPa | 0 mm | - | 467 W/m² | - |
| 1778097836 | 18.89° C | 73% | 1022.7 hPa | 0 mm | - | 431 W/m² | - |
| 1778097532 | 18.89° C | 75% | 1022.6 hPa | 0 mm | - | 374 W/m² | - |
| 1778097230 | 18.89° C | 76% | 1022.7 hPa | 0 mm | - | 335 W/m² | - |
| 1778096926 | 18.89° C | 77% | 1022.8 hPa | 0 mm | - | 323 W/m² | - |
| 1778096623 | 18.33° C | 75% | 1023 hPa | 0 mm | - | 313 W/m² | - |
| 1778096321 | 18.33° C | 79% | 1023 hPa | 0 mm | - | 290 W/m² | - |
| 1778096017 | 17.78° C | 76% | 1022.9 hPa | 0 mm | - | 283 W/m² | - |
| 1778095714 | 17.78° C | 78% | 1023 hPa | 0 mm | - | 263 W/m² | - |
| 1778095410 | 17.78° C | 77% | 1023.1 hPa | 0 mm | - | 254 W/m² | - |
| 1778095107 | 17.78° C | 78% | 1023.2 hPa | 0 mm | - | 241 W/m² | - |
| 1778094804 | 17.78° C | 79% | 1023.3 hPa | 0 mm | - | 234 W/m² | - |
| 1778094501 | 17.78° C | 78% | 1023 hPa | 0 mm | - | 228 W/m² | - |
| 1778094197 | 17.78° C | 79% | 1023.1 hPa | 0 mm | - | 223 W/m² | - |
| 1778093894 | 17.78° C | 79% | 1023.2 hPa | 0 mm | - | 214 W/m² | - |
| 1778093591 | 17.78° C | 80% | 1023.1 hPa | 0 mm | - | 212 W/m² | - |
| 1778093288 | 17.78° C | 79% | 1023.3 hPa | 0 mm | - | 196 W/m² | - |
| 1778092986 | 17.78° C | 79% | 1023.2 hPa | 0 mm | - | 198 W/m² | - |
| 1778092682 | 17.78° C | 80% | 1023.2 hPa | 0 mm | - | 213 W/m² | - |
* Rain latest hour (hover to see other rain measurements)
** Current wind speed in m/s (hover to see current wind gust speed)